Year,Month,Day,Hour,Minute,Value (Times are PST for windspeed in km/hr)
2006,01,31,00,00,5.50
2006,01,31,00,01,6.30
2006,01,31,00,02,4.70
2006,01,31,00,03,4.00
2006,01,31,00,04,2.80
2006,01,31,00,05,3.60
2006,01,31,00,06,3.90
2006,01,31,00,07,3.80
2006,01,31,00,08,3.70
2006,01,31,00,09,7.20
2006,01,31,00,10,6.90
2006,01,31,00,11,5.50
2006,01,31,00,12,5.10
2006,01,31,00,13,3.70
2006,01,31,00,14,1.80
2006,01,31,00,15,2.70
2006,01,31,00,16,0.80
2006,01,31,00,17,1.60
2006,01,31,00,18,3.00
2006,01,31,00,19,2.20
2006,01,31,00,20,2.10
2006,01,31,00,21,0.40
2006,01,31,00,22,2.20
2006,01,31,00,23,1.50
2006,01,31,00,24,2.90
2006,01,31,00,25,3.00
2006,01,31,00,26,3.50
2006,01,31,00,27,3.50
2006,01,31,00,28,2.90
2006,01,31,00,29,3.70
2006,01,31,00,30,3.80
2006,01,31,00,31,4.30
2006,01,31,00,32,5.40
2006,01,31,00,33,7.10
2006,01,31,00,34,4.70
2006,01,31,00,35,4.80
2006,01,31,00,36,5.20
2006,01,31,00,37,5.90
2006,01,31,00,38,4.30
2006,01,31,00,39,3.50
2006,01,31,00,40,3.10
2006,01,31,00,41,3.60
2006,01,31,00,42,4.10
2006,01,31,00,43,2.70
2006,01,31,00,44,7.40
2006,01,31,00,45,7.20
2006,01,31,00,46,2.30
2006,01,31,00,47,4.50
2006,01,31,00,48,8.40
2006,01,31,00,49,4.50
2006,01,31,00,50,7.30
2006,01,31,00,51,6.00
2006,01,31,00,52,5.30
2006,01,31,00,53,3.20
2006,01,31,00,54,2.40
2006,01,31,00,55,3.90
2006,01,31,00,56,3.00
2006,01,31,00,57,3.40
2006,01,31,00,58,3.10
2006,01,31,00,59,2.60
2006,01,31,01,00,2.40
2006,01,31,01,01,3.90
2006,01,31,01,02,2.40
2006,01,31,01,03,1.70
2006,01,31,01,04,1.00
2006,01,31,01,05,5.90
2006,01,31,01,06,4.70
2006,01,31,01,07,1.40
2006,01,31,01,08,0.60
2006,01,31,01,09,4.70
2006,01,31,01,10,4.60
2006,01,31,01,11,2.10
2006,01,31,01,12,4.50
2006,01,31,01,13,4.70
2006,01,31,01,14,8.00
2006,01,31,01,15,8.10
2006,01,31,01,16,9.50
2006,01,31,01,17,4.70
2006,01,31,01,18,10.10
2006,01,31,01,19,7.90
2006,01,31,01,20,11.30
2006,01,31,01,21,8.60
2006,01,31,01,22,6.40
2006,01,31,01,23,7.00
2006,01,31,01,24,12.50
2006,01,31,01,25,5.50
2006,01,31,01,26,6.40
2006,01,31,01,27,9.60
2006,01,31,01,28,12.60
2006,01,31,01,29,11.40
2006,01,31,01,30,5.90
2006,01,31,01,31,4.20
2006,01,31,01,32,3.20
2006,01,31,01,33,2.90
2006,01,31,01,34,2.20
2006,01,31,01,35,4.40
2006,01,31,01,36,7.60
2006,01,31,01,37,5.10
2006,01,31,01,38,4.20
2006,01,31,01,39,3.00
2006,01,31,01,40,3.70
2006,01,31,01,41,3.20
2006,01,31,01,42,2.30
2006,01,31,01,43,1.40
2006,01,31,01,44,2.10
2006,01,31,01,45,4.80
2006,01,31,01,46,2.50
2006,01,31,01,47,3.60
2006,01,31,01,48,4.80
2006,01,31,01,49,3.00
2006,01,31,01,50,2.70
2006,01,31,01,51,3.20
2006,01,31,01,52,1.60
2006,01,31,01,53,1.60
2006,01,31,01,54,0.00
2006,01,31,01,55,0.10
2006,01,31,01,56,2.50
2006,01,31,01,57,1.80
2006,01,31,01,58,0.70
2006,01,31,01,59,1.70
2006,01,31,02,00,2.30
2006,01,31,02,01,2.00
2006,01,31,02,02,1.40
2006,01,31,02,03,1.10
2006,01,31,02,04,3.10
2006,01,31,02,05,2.30
2006,01,31,02,06,2.70
2006,01,31,02,07,2.50
2006,01,31,02,08,2.30
2006,01,31,02,09,3.00
2006,01,31,02,10,2.40
2006,01,31,02,11,3.00
2006,01,31,02,12,3.60
2006,01,31,02,13,2.80
2006,01,31,02,14,3.40
2006,01,31,02,15,1.50
2006,01,31,02,16,2.90
2006,01,31,02,17,3.90
2006,01,31,02,18,4.70
2006,01,31,02,19,2.90
2006,01,31,02,20,3.20
2006,01,31,02,21,4.30
2006,01,31,02,22,5.60
2006,01,31,02,23,5.30
2006,01,31,02,24,4.90
2006,01,31,02,25,7.20
2006,01,31,02,26,3.50
2006,01,31,02,27,6.00
2006,01,31,02,28,5.10
2006,01,31,02,29,3.60
2006,01,31,02,30,4.40
2006,01,31,02,31,3.50
2006,01,31,02,32,3.30
2006,01,31,02,33,4.80
2006,01,31,02,34,4.80
2006,01,31,02,35,3.80
2006,01,31,02,36,4.60
2006,01,31,02,37,4.70
2006,01,31,02,38,4.90
2006,01,31,02,39,4.40
2006,01,31,02,40,3.40
2006,01,31,02,41,3.20
2006,01,31,02,42,4.60
2006,01,31,02,43,6.70
2006,01,31,02,44,4.40
2006,01,31,02,45,4.30
2006,01,31,02,46,4.50
2006,01,31,02,47,6.50
2006,01,31,02,48,6.80
2006,01,31,02,49,7.70
2006,01,31,02,50,6.60
2006,01,31,02,51,5.00
2006,01,31,02,52,5.40
2006,01,31,02,53,5.80
2006,01,31,02,54,7.10
2006,01,31,02,55,4.70
2006,01,31,02,56,3.20
2006,01,31,02,57,5.20
2006,01,31,02,58,8.50
2006,01,31,02,59,5.80
2006,01,31,03,00,2.60
2006,01,31,03,01,5.70
2006,01,31,03,02,6.40
2006,01,31,03,03,6.00
2006,01,31,03,04,5.30
2006,01,31,03,05,5.50
2006,01,31,03,06,3.50
2006,01,31,03,07,5.40
2006,01,31,03,08,2.50
2006,01,31,03,09,4.20
2006,01,31,03,10,6.10
2006,01,31,03,11,3.50
2006,01,31,03,12,5.10
2006,01,31,03,13,5.40
2006,01,31,03,14,5.40
2006,01,31,03,15,5.90
2006,01,31,03,16,4.40
2006,01,31,03,17,3.50
2006,01,31,03,18,2.80
2006,01,31,03,19,3.40
2006,01,31,03,20,2.30
2006,01,31,03,21,3.40
2006,01,31,03,22,1.90
2006,01,31,03,23,3.10
2006,01,31,03,24,3.00
2006,01,31,03,25,3.30
2006,01,31,03,26,4.60
2006,01,31,03,27,3.00
2006,01,31,03,28,2.50
2006,01,31,03,29,3.00
2006,01,31,03,30,3.30
2006,01,31,03,31,3.40
2006,01,31,03,32,0.80
2006,01,31,03,33,0.10
2006,01,31,03,34,0.20
2006,01,31,03,35,1.80
2006,01,31,03,36,2.50
2006,01,31,03,37,0.90
2006,01,31,03,38,1.40
2006,01,31,03,39,0.80
2006,01,31,03,40,0.40
2006,01,31,03,41,1.00
2006,01,31,03,42,0.90
2006,01,31,03,43,2.60
2006,01,31,03,44,2.90
2006,01,31,03,45,0.30
2006,01,31,03,46,0.60
2006,01,31,03,47,2.60
2006,01,31,03,48,1.60
2006,01,31,03,49,2.70
2006,01,31,03,50,4.00
2006,01,31,03,51,3.90
2006,01,31,03,52,4.00
2006,01,31,03,53,3.10
2006,01,31,03,54,3.10
2006,01,31,03,55,2.60
2006,01,31,03,56,1.80
2006,01,31,03,57,2.30
2006,01,31,03,58,3.40
2006,01,31,03,59,2.30
2006,01,31,04,00,3.00
2006,01,31,04,01,2.30
2006,01,31,04,02,2.10
2006,01,31,04,03,1.50
2006,01,31,04,04,1.50
2006,01,31,04,05,1.80
2006,01,31,04,06,0.60
2006,01,31,04,07,0.20
2006,01,31,04,08,0.20
2006,01,31,04,09,0.30
2006,01,31,04,10,1.00
2006,01,31,04,11,1.60
2006,01,31,04,12,0.80
2006,01,31,04,13,0.90
2006,01,31,04,14,1.00
2006,01,31,04,15,0.00
2006,01,31,04,16,0.10
2006,01,31,04,17,0.10
2006,01,31,04,18,1.70
2006,01,31,04,19,0.50
2006,01,31,04,20,0.00
2006,01,31,04,21,0.20
2006,01,31,04,22,3.00
2006,01,31,04,23,3.20
2006,01,31,04,24,2.30
2006,01,31,04,25,2.60
2006,01,31,04,26,0.90
2006,01,31,04,27,1.10
2006,01,31,04,28,0.20
2006,01,31,04,29,0.00
2006,01,31,04,30,0.00
2006,01,31,04,31,0.00
2006,01,31,04,32,0.00
2006,01,31,04,33,0.00
2006,01,31,04,34,0.00
2006,01,31,04,35,0.00
2006,01,31,04,36,0.00
2006,01,31,04,37,0.80
2006,01,31,04,38,1.50
2006,01,31,04,39,1.40
2006,01,31,04,40,2.40
2006,01,31,04,41,2.40
2006,01,31,04,42,2.50
2006,01,31,04,43,1.40
2006,01,31,04,44,0.00
2006,01,31,04,45,0.10
2006,01,31,04,46,1.40
2006,01,31,04,47,1.90
2006,01,31,04,48,2.50
2006,01,31,04,49,4.00
2006,01,31,04,50,4.70
2006,01,31,04,51,3.30
2006,01,31,04,52,3.10
2006,01,31,04,53,1.80
2006,01,31,04,54,2.60
2006,01,31,04,55,0.60
2006,01,31,04,56,1.50
2006,01,31,04,57,0.10
2006,01,31,04,58,2.80
2006,01,31,04,59,5.80
2006,01,31,05,00,2.60
2006,01,31,05,01,1.70
2006,01,31,05,02,2.50
2006,01,31,05,03,1.80
2006,01,31,05,04,5.90
2006,01,31,05,05,3.00
2006,01,31,05,06,3.00
2006,01,31,05,07,2.10
2006,01,31,05,08,3.70
2006,01,31,05,09,2.80
2006,01,31,05,10,2.80
2006,01,31,05,11,1.00
2006,01,31,05,12,2.80
2006,01,31,05,13,2.20
2006,01,31,05,14,1.90
2006,01,31,05,15,1.00
2006,01,31,05,16,3.20
2006,01,31,05,17,3.70
2006,01,31,05,18,5.00
2006,01,31,05,19,5.50
2006,01,31,05,20,3.50
2006,01,31,05,21,1.80
2006,01,31,05,22,1.40
2006,01,31,05,23,4.30
2006,01,31,05,24,3.60
2006,01,31,05,25,3.30
2006,01,31,05,26,5.50
2006,01,31,05,27,5.20
2006,01,31,05,28,2.60
2006,01,31,05,29,2.30
2006,01,31,05,30,2.40
2006,01,31,05,31,3.30
2006,01,31,05,32,4.40
2006,01,31,05,33,3.00
2006,01,31,05,34,4.20
2006,01,31,05,35,5.10
2006,01,31,05,36,2.50
2006,01,31,05,37,3.30
2006,01,31,05,38,3.40
2006,01,31,05,39,1.50
2006,01,31,05,40,4.70
2006,01,31,05,41,2.10
2006,01,31,05,42,5.00
2006,01,31,05,43,4.90
2006,01,31,05,44,3.80
2006,01,31,05,45,4.00
2006,01,31,05,46,1.90
2006,01,31,05,47,3.10
2006,01,31,05,48,2.00
2006,01,31,05,49,4.80
2006,01,31,05,50,5.30
2006,01,31,05,51,5.40
2006,01,31,05,52,6.40
2006,01,31,05,53,5.10
2006,01,31,05,54,2.40
2006,01,31,05,55,4.70
2006,01,31,05,56,2.50
2006,01,31,05,57,1.00
2006,01,31,05,58,0.00
2006,01,31,05,59,1.00
2006,01,31,06,00,3.50
2006,01,31,06,01,0.50
2006,01,31,06,02,2.50
2006,01,31,06,03,0.70
2006,01,31,06,04,0.10
2006,01,31,06,05,1.00
2006,01,31,06,06,0.20
2006,01,31,06,07,2.30
2006,01,31,06,08,2.60
2006,01,31,06,09,2.50
2006,01,31,06,10,0.30
2006,01,31,06,11,0.00
2006,01,31,06,12,3.40
2006,01,31,06,13,1.10
2006,01,31,06,14,0.20
2006,01,31,06,15,2.10
2006,01,31,06,16,3.00
2006,01,31,06,17,1.50
2006,01,31,06,18,0.30
2006,01,31,06,19,0.20
2006,01,31,06,20,0.50
2006,01,31,06,21,1.00
2006,01,31,06,22,0.00
2006,01,31,06,23,1.20
2006,01,31,06,24,1.10
2006,01,31,06,25,0.20
2006,01,31,06,26,0.60
2006,01,31,06,27,0.40
2006,01,31,06,28,1.50
2006,01,31,06,29,1.60
2006,01,31,06,30,1.80
2006,01,31,06,31,0.60
2006,01,31,06,32,0.50
2006,01,31,06,33,0.40
2006,01,31,06,34,0.10
2006,01,31,06,35,0.00
2006,01,31,06,36,0.00
2006,01,31,06,37,0.30
2006,01,31,06,38,2.00
2006,01,31,06,39,0.60
2006,01,31,06,40,0.10
2006,01,31,06,41,0.30
2006,01,31,06,42,0.10
2006,01,31,06,43,0.00
2006,01,31,06,44,0.00
2006,01,31,06,45,0.00
2006,01,31,06,46,0.00
2006,01,31,06,47,0.00
2006,01,31,06,48,3.90
2006,01,31,06,49,0.40
2006,01,31,06,50,0.60
2006,01,31,06,51,0.00
2006,01,31,06,52,0.80
2006,01,31,06,53,0.30
2006,01,31,06,54,0.00
2006,01,31,06,55,1.20
2006,01,31,06,56,2.10
2006,01,31,06,57,2.80
2006,01,31,06,58,4.70
2006,01,31,06,59,5.10
2006,01,31,07,00,2.30
2006,01,31,07,01,4.20
2006,01,31,07,02,1.20
2006,01,31,07,03,0.10
2006,01,31,07,04,2.10
2006,01,31,07,05,4.20
2006,01,31,07,06,1.90
2006,01,31,07,07,1.10
2006,01,31,07,08,0.00
2006,01,31,07,09,1.60
2006,01,31,07,10,1.50
2006,01,31,07,11,1.60
2006,01,31,07,12,0.80
2006,01,31,07,13,0.30
2006,01,31,07,14,1.80
2006,01,31,07,15,2.60
2006,01,31,07,16,1.50
2006,01,31,07,17,0.00
2006,01,31,07,18,0.30
2006,01,31,07,19,2.70
2006,01,31,07,20,3.80
2006,01,31,07,21,1.90
2006,01,31,07,22,2.30
2006,01,31,07,23,2.80
2006,01,31,07,24,2.90
2006,01,31,07,25,3.70
2006,01,31,07,26,1.60
2006,01,31,07,27,1.90
2006,01,31,07,28,2.00
2006,01,31,07,29,1.40
2006,01,31,07,30,4.00
2006,01,31,07,31,1.60
2006,01,31,07,32,2.70
2006,01,31,07,33,1.00
2006,01,31,07,34,1.00
2006,01,31,07,35,1.10
2006,01,31,07,36,1.50
2006,01,31,07,37,2.20
2006,01,31,07,38,0.80
2006,01,31,07,39,0.00
2006,01,31,07,40,1.80
2006,01,31,07,41,0.90
2006,01,31,07,42,0.20
2006,01,31,07,43,0.00
2006,01,31,07,44,0.00
2006,01,31,07,45,0.20
2006,01,31,07,46,2.30
2006,01,31,07,47,0.10
2006,01,31,07,48,0.00
2006,01,31,07,49,1.50
2006,01,31,07,50,1.20
2006,01,31,07,51,1.20
2006,01,31,07,52,2.30
2006,01,31,07,53,3.10
2006,01,31,07,54,3.00
2006,01,31,07,55,0.90
2006,01,31,07,56,1.50
2006,01,31,07,57,0.00
2006,01,31,07,58,0.70
2006,01,31,07,59,3.50
2006,01,31,08,00,3.20
2006,01,31,08,01,2.60
2006,01,31,08,02,2.50
2006,01,31,08,03,2.60
2006,01,31,08,04,1.20
2006,01,31,08,05,2.00
2006,01,31,08,06,3.20
2006,01,31,08,07,1.70
2006,01,31,08,08,0.20
2006,01,31,08,09,2.40
2006,01,31,08,10,3.90
2006,01,31,08,11,4.60
2006,01,31,08,12,4.40
2006,01,31,08,13,2.30
2006,01,31,08,14,2.90
2006,01,31,08,15,2.80
2006,01,31,08,16,1.90
2006,01,31,08,17,1.00
2006,01,31,08,18,4.40
2006,01,31,08,19,5.80
2006,01,31,08,20,3.50
2006,01,31,08,21,1.70
2006,01,31,08,22,1.80
2006,01,31,08,23,0.70
2006,01,31,08,24,0.20
2006,01,31,08,25,1.90
2006,01,31,08,26,0.40
2006,01,31,08,27,0.00
2006,01,31,08,28,1.30
2006,01,31,08,29,1.60
2006,01,31,08,30,0.40
2006,01,31,08,31,0.60
2006,01,31,08,32,4.10
2006,01,31,08,33,4.70
2006,01,31,08,34,3.40
2006,01,31,08,35,3.20
2006,01,31,08,36,5.20
2006,01,31,08,37,5.80
2006,01,31,08,38,6.20
2006,01,31,08,39,4.10
2006,01,31,08,40,2.80
2006,01,31,08,41,1.20
2006,01,31,08,42,3.60
2006,01,31,08,43,2.60
2006,01,31,08,44,3.90
2006,01,31,08,45,1.60
2006,01,31,08,46,1.10
2006,01,31,08,47,1.50
2006,01,31,08,48,2.60
2006,01,31,08,49,1.10
2006,01,31,08,50,1.30
2006,01,31,08,51,0.00
2006,01,31,08,52,0.60
2006,01,31,08,53,1.50
2006,01,31,08,54,2.10
2006,01,31,08,55,2.40
2006,01,31,08,56,2.90
2006,01,31,08,57,6.80
2006,01,31,08,58,3.70
2006,01,31,08,59,4.30
2006,01,31,09,00,3.90
2006,01,31,09,01,2.10
2006,01,31,09,02,0.70
2006,01,31,09,03,2.00
2006,01,31,09,04,0.40
2006,01,31,09,05,1.50
2006,01,31,09,06,3.90
2006,01,31,09,07,2.90
2006,01,31,09,08,3.10
2006,01,31,09,09,2.00
2006,01,31,09,10,0.40
2006,01,31,09,11,0.40
2006,01,31,09,12,0.00
2006,01,31,09,13,2.40
2006,01,31,09,14,5.50
2006,01,31,09,15,3.10
2006,01,31,09,16,0.20
2006,01,31,09,17,0.10
2006,01,31,09,18,4.90
2006,01,31,09,19,2.30
2006,01,31,09,20,2.30
2006,01,31,09,21,3.90
2006,01,31,09,22,2.80
2006,01,31,09,23,4.20
2006,01,31,09,24,1.30
2006,01,31,09,25,0.90
2006,01,31,09,26,1.10
2006,01,31,09,27,0.80
2006,01,31,09,28,4.00
2006,01,31,09,29,2.50
2006,01,31,09,30,3.20
2006,01,31,09,31,1.50
2006,01,31,09,32,4.70
2006,01,31,09,33,4.60
2006,01,31,09,34,4.80
2006,01,31,09,35,3.90
2006,01,31,09,36,3.70
2006,01,31,09,37,1.90
2006,01,31,09,38,2.10
2006,01,31,09,39,4.80
2006,01,31,09,40,3.10
2006,01,31,09,41,2.20
2006,01,31,09,42,3.20
2006,01,31,09,43,2.00
2006,01,31,09,44,2.60
2006,01,31,09,45,8.00
2006,01,31,09,46,3.90
2006,01,31,09,47,5.00
2006,01,31,09,48,1.10
2006,01,31,09,49,5.60
2006,01,31,09,50,7.90
2006,01,31,09,51,3.10
2006,01,31,09,52,3.10
2006,01,31,09,53,6.10
2006,01,31,09,54,8.50
2006,01,31,09,55,5.20
2006,01,31,09,56,4.80
2006,01,31,09,57,2.40
2006,01,31,09,58,3.90
2006,01,31,09,59,4.20
2006,01,31,10,00,6.00
2006,01,31,10,01,3.50
2006,01,31,10,02,5.80
2006,01,31,10,03,7.10
2006,01,31,10,04,3.20
2006,01,31,10,05,5.80
2006,01,31,10,06,9.10
2006,01,31,10,07,5.50
2006,01,31,10,08,3.20
2006,01,31,10,09,3.90
2006,01,31,10,10,2.80
2006,01,31,10,11,3.00
2006,01,31,10,12,3.60
2006,01,31,10,13,4.00
2006,01,31,10,14,5.70
2006,01,31,10,15,9.40
2006,01,31,10,16,10.30
2006,01,31,10,17,5.70
2006,01,31,10,18,10.20
2006,01,31,10,19,5.50
2006,01,31,10,20,4.30
2006,01,31,10,21,7.50
2006,01,31,10,22,10.40
2006,01,31,10,23,3.60
2006,01,31,10,24,7.30
2006,01,31,10,25,5.10
2006,01,31,10,26,4.00
2006,01,31,10,27,3.20
2006,01,31,10,28,2.30
2006,01,31,10,29,3.50
2006,01,31,10,30,4.20
2006,01,31,10,31,5.10
2006,01,31,10,32,5.10
2006,01,31,10,33,2.10
2006,01,31,10,34,3.70
2006,01,31,10,35,3.10
2006,01,31,10,36,3.40
2006,01,31,10,37,4.00
2006,01,31,10,38,1.90
2006,01,31,10,39,3.80
2006,01,31,10,40,4.10
2006,01,31,10,41,4.80
2006,01,31,10,42,1.80
2006,01,31,10,43,0.80
2006,01,31,10,44,0.30
2006,01,31,10,45,0.40
2006,01,31,10,46,1.20
2006,01,31,10,47,3.20
2006,01,31,10,48,4.70
2006,01,31,10,49,6.60
2006,01,31,10,50,7.30
2006,01,31,10,51,8.50
2006,01,31,10,52,7.60
2006,01,31,10,53,7.60
2006,01,31,10,54,5.30
2006,01,31,10,55,6.00
2006,01,31,10,56,5.10
2006,01,31,10,57,6.10
2006,01,31,10,58,7.00
2006,01,31,10,59,4.30
2006,01,31,11,00,3.00
2006,01,31,11,01,3.00
2006,01,31,11,02,2.90
2006,01,31,11,03,1.10
2006,01,31,11,04,0.10
2006,01,31,11,05,0.00
2006,01,31,11,06,0.00
2006,01,31,11,07,0.00
2006,01,31,11,08,0.10
2006,01,31,11,09,0.10
2006,01,31,11,10,1.20
2006,01,31,11,11,2.50
2006,01,31,11,12,1.80
2006,01,31,11,13,2.40
2006,01,31,11,14,1.80
2006,01,31,11,15,1.80
2006,01,31,11,16,3.50
2006,01,31,11,17,4.50
2006,01,31,11,18,3.00
2006,01,31,11,19,2.50
2006,01,31,11,20,2.60
2006,01,31,11,21,4.60
2006,01,31,11,22,7.30
2006,01,31,11,23,8.60
2006,01,31,11,24,5.60
2006,01,31,11,25,4.60
2006,01,31,11,26,8.00
2006,01,31,11,27,7.50
2006,01,31,11,28,4.20
2006,01,31,11,29,3.00
2006,01,31,11,30,7.90
2006,01,31,11,31,7.20
2006,01,31,11,32,5.60
2006,01,31,11,33,1.50
2006,01,31,11,34,0.80
2006,01,31,11,35,3.20
2006,01,31,11,36,5.90
2006,01,31,11,37,5.90
2006,01,31,11,38,7.80
2006,01,31,11,39,6.70
2006,01,31,11,40,4.50
2006,01,31,11,41,4.00
2006,01,31,11,42,3.10
2006,01,31,11,43,5.50
2006,01,31,11,44,7.70
2006,01,31,11,45,4.60
2006,01,31,11,46,5.20
2006,01,31,11,47,5.30
2006,01,31,11,48,5.90
2006,01,31,11,49,4.30
2006,01,31,11,50,4.40
2006,01,31,11,51,5.20
2006,01,31,11,52,1.90
2006,01,31,11,53,2.60
2006,01,31,11,54,2.60
2006,01,31,11,55,7.10
2006,01,31,11,56,10.00
2006,01,31,11,57,10.10
2006,01,31,11,58,2.50
2006,01,31,11,59,3.10
2006,01,31,12,00,4.70
2006,01,31,12,01,5.00
2006,01,31,12,02,6.90
2006,01,31,12,03,3.50
2006,01,31,12,04,1.40
2006,01,31,12,05,1.40
2006,01,31,12,06,6.60
2006,01,31,12,07,8.60
2006,01,31,12,08,6.40
2006,01,31,12,09,6.90
2006,01,31,12,10,7.90
2006,01,31,12,11,7.70
2006,01,31,12,12,5.10
2006,01,31,12,13,9.70
2006,01,31,12,14,12.20
2006,01,31,12,15,10.50
2006,01,31,12,16,10.00
2006,01,31,12,17,13.20
2006,01,31,12,18,11.30
2006,01,31,12,19,5.60
2006,01,31,12,20,6.90
2006,01,31,12,21,6.60
2006,01,31,12,22,10.50
2006,01,31,12,23,8.10
2006,01,31,12,24,10.90
2006,01,31,12,25,17.70
2006,01,31,12,26,9.50
2006,01,31,12,27,10.20
2006,01,31,12,28,10.10
2006,01,31,12,29,7.70
2006,01,31,12,30,5.50
2006,01,31,12,31,7.70
2006,01,31,12,32,6.10
2006,01,31,12,33,11.80
2006,01,31,12,34,13.00
2006,01,31,12,35,12.60
2006,01,31,12,36,10.60
2006,01,31,12,37,9.10
2006,01,31,12,38,11.90
2006,01,31,12,39,16.10
2006,01,31,12,40,15.40
2006,01,31,12,41,16.80
2006,01,31,12,42,12.20
2006,01,31,12,43,14.60
2006,01,31,12,44,15.00
2006,01,31,12,45,16.30
2006,01,31,12,46,12.30
2006,01,31,12,47,10.40
2006,01,31,12,48,9.10
2006,01,31,12,49,9.20
2006,01,31,12,50,12.20
2006,01,31,12,51,14.80
2006,01,31,12,52,7.40
2006,01,31,12,53,6.20
2006,01,31,12,54,11.50
2006,01,31,12,55,13.20
2006,01,31,12,56,13.80
2006,01,31,12,57,8.20
2006,01,31,12,58,7.20
2006,01,31,12,59,13.40
2006,01,31,13,00,13.80
2006,01,31,13,01,13.00
2006,01,31,13,02,11.50
2006,01,31,13,03,10.90
2006,01,31,13,04,13.60
2006,01,31,13,05,19.70
2006,01,31,13,06,15.10
2006,01,31,13,07,17.70
2006,01,31,13,08,12.50
2006,01,31,13,09,10.70
2006,01,31,13,10,10.10
2006,01,31,13,11,13.30
2006,01,31,13,12,13.10
2006,01,31,13,13,12.50
2006,01,31,13,14,19.20
2006,01,31,13,15,10.90
2006,01,31,13,16,15.10
2006,01,31,13,17,21.10
2006,01,31,13,18,12.40
2006,01,31,13,19,10.80
2006,01,31,13,20,12.70
2006,01,31,13,21,16.70
2006,01,31,13,22,13.30
2006,01,31,13,23,15.40
2006,01,31,13,24,22.40
2006,01,31,13,25,18.20
2006,01,31,13,26,27.40
2006,01,31,13,27,21.90
2006,01,31,13,28,20.20
2006,01,31,13,29,19.10
2006,01,31,13,30,25.90
2006,01,31,13,31,25.40
2006,01,31,13,32,27.30
2006,01,31,13,33,26.50
2006,01,31,13,34,27.40
2006,01,31,13,35,26.50
2006,01,31,13,36,19.10
2006,01,31,13,37,24.90
2006,01,31,13,38,27.40
2006,01,31,13,39,20.90
2006,01,31,13,40,22.90
2006,01,31,13,41,19.90
2006,01,31,13,42,17.80
2006,01,31,13,43,24.40
2006,01,31,13,44,28.30
2006,01,31,13,45,24.40
2006,01,31,13,46,18.40
2006,01,31,13,47,19.80
2006,01,31,13,48,21.90
2006,01,31,13,49,21.00
2006,01,31,13,50,16.60
2006,01,31,13,51,25.10
2006,01,31,13,52,16.80
2006,01,31,13,53,18.60
2006,01,31,13,54,25.60
2006,01,31,13,55,25.50
2006,01,31,13,56,22.50
2006,01,31,13,57,23.80
2006,01,31,13,58,30.30
2006,01,31,13,59,26.80
2006,01,31,14,00,15.40
2006,01,31,14,01,14.90
2006,01,31,14,02,13.50
2006,01,31,14,03,23.70
2006,01,31,14,04,17.40
2006,01,31,14,05,21.40
2006,01,31,14,06,24.10
2006,01,31,14,07,17.90
2006,01,31,14,08,22.90
2006,01,31,14,09,19.60
2006,01,31,14,10,18.30
2006,01,31,14,11,23.60
2006,01,31,14,12,22.10
2006,01,31,14,13,21.80
2006,01,31,14,14,17.90
2006,01,31,14,15,24.00
2006,01,31,14,16,25.00
2006,01,31,14,17,25.00
2006,01,31,14,18,19.20
2006,01,31,14,19,24.60
2006,01,31,14,20,27.20
2006,01,31,14,21,22.90
2006,01,31,14,22,27.20
2006,01,31,14,23,27.40
2006,01,31,14,24,15.00
2006,01,31,14,25,22.30
2006,01,31,14,26,28.50
2006,01,31,14,27,21.90
2006,01,31,14,28,26.20
2006,01,31,14,29,17.60
2006,01,31,14,30,23.70
2006,01,31,14,31,29.80
2006,01,31,14,32,22.10
2006,01,31,14,33,18.10
2006,01,31,14,34,20.00
2006,01,31,14,35,20.40
2006,01,31,14,36,17.60
2006,01,31,14,37,20.10
2006,01,31,14,38,25.10
2006,01,31,14,39,15.00
2006,01,31,14,40,21.30
2006,01,31,14,41,22.40
2006,01,31,14,42,29.20
2006,01,31,14,43,21.20
2006,01,31,14,44,30.30
2006,01,31,14,45,23.80
2006,01,31,14,46,27.40
2006,01,31,14,47,30.20
2006,01,31,14,48,31.60
2006,01,31,14,49,20.10
2006,01,31,14,50,29.80
2006,01,31,14,51,18.50
2006,01,31,14,52,19.70
2006,01,31,14,53,22.10
2006,01,31,14,54,23.70
2006,01,31,14,55,23.10
2006,01,31,14,56,29.90
2006,01,31,14,57,29.40
2006,01,31,14,58,33.00
2006,01,31,14,59,33.50
2006,01,31,15,00,30.30
2006,01,31,15,01,18.40
2006,01,31,15,02,26.30
2006,01,31,15,03,24.50
2006,01,31,15,04,19.50
2006,01,31,15,05,31.60
2006,01,31,15,06,23.50
2006,01,31,15,07,24.50
2006,01,31,15,08,30.70
2006,01,31,15,09,19.60
2006,01,31,15,10,17.30
2006,01,31,15,11,18.80
2006,01,31,15,12,30.00
2006,01,31,15,13,25.50
2006,01,31,15,14,27.20
2006,01,31,15,15,24.90
2006,01,31,15,16,19.00
2006,01,31,15,17,15.80
2006,01,31,15,18,16.40
2006,01,31,15,19,27.00
2006,01,31,15,20,25.20
2006,01,31,15,21,20.50
2006,01,31,15,22,28.20
2006,01,31,15,23,19.60
2006,01,31,15,24,20.40
2006,01,31,15,25,17.30
2006,01,31,15,26,47.90
2006,01,31,15,27,31.10
2006,01,31,15,28,20.30
2006,01,31,15,29,23.30
2006,01,31,15,30,27.40
2006,01,31,15,31,28.20
2006,01,31,15,32,21.10
2006,01,31,15,33,25.70
2006,01,31,15,34,21.60
2006,01,31,15,35,22.00
2006,01,31,15,36,24.20
2006,01,31,15,37,24.60
2006,01,31,15,38,24.50
2006,01,31,15,39,25.20
2006,01,31,15,40,19.70
2006,01,31,15,41,25.80
2006,01,31,15,42,25.30
2006,01,31,15,43,28.50
2006,01,31,15,44,26.20
2006,01,31,15,45,27.70
2006,01,31,15,46,27.50
2006,01,31,15,47,18.70
2006,01,31,15,48,37.50
2006,01,31,15,49,36.00
2006,01,31,15,50,23.00
2006,01,31,15,51,30.80
2006,01,31,15,52,22.60
2006,01,31,15,53,36.30
2006,01,31,15,54,28.20
2006,01,31,15,55,17.30
2006,01,31,15,56,18.40
2006,01,31,15,57,33.90
2006,01,31,15,58,20.20
2006,01,31,15,59,18.30
2006,01,31,16,00,30.20
2006,01,31,16,01,22.70
2006,01,31,16,02,26.30
2006,01,31,16,03,28.80
2006,01,31,16,04,21.80
2006,01,31,16,05,15.00
2006,01,31,16,06,24.10
2006,01,31,16,07,22.20
2006,01,31,16,08,27.10
2006,01,31,16,09,29.40
2006,01,31,16,10,21.60
2006,01,31,16,11,31.10
2006,01,31,16,12,21.60
2006,01,31,16,13,26.20
2006,01,31,16,14,22.10
2006,01,31,16,15,26.20
2006,01,31,16,16,22.60
2006,01,31,16,17,24.80
2006,01,31,16,18,25.90
2006,01,31,16,19,24.90
2006,01,31,16,20,22.60
2006,01,31,16,21,22.90
2006,01,31,16,22,20.80
2006,01,31,16,23,23.00
2006,01,31,16,24,23.40
2006,01,31,16,25,20.20
2006,01,31,16,26,23.50
2006,01,31,16,27,18.20
2006,01,31,16,28,20.50
2006,01,31,16,29,33.50
2006,01,31,16,30,25.20
2006,01,31,16,31,26.70
2006,01,31,16,32,23.70
2006,01,31,16,33,33.50
2006,01,31,16,34,36.30
2006,01,31,16,35,36.40
2006,01,31,16,36,22.10
2006,01,31,16,37,31.70
2006,01,31,16,38,23.70
2006,01,31,16,39,26.10
2006,01,31,16,40,21.20
2006,01,31,16,41,24.00
2006,01,31,16,42,22.90
2006,01,31,16,43,21.40
2006,01,31,16,44,32.30
2006,01,31,16,45,27.10
2006,01,31,16,46,22.10
2006,01,31,16,47,34.80
2006,01,31,16,48,30.00
2006,01,31,16,49,22.40
2006,01,31,16,50,27.40
2006,01,31,16,51,30.00
2006,01,31,16,52,31.10
2006,01,31,16,53,37.40
2006,01,31,16,54,33.30
2006,01,31,16,55,21.50
2006,01,31,16,56,23.20
2006,01,31,16,57,23.80
2006,01,31,16,58,27.40
2006,01,31,16,59,21.10
2006,01,31,17,00,26.50
2006,01,31,17,01,24.00
2006,01,31,17,02,21.50
2006,01,31,17,03,24.70
2006,01,31,17,04,30.00
2006,01,31,17,05,24.90
2006,01,31,17,06,21.00
2006,01,31,17,07,25.40
2006,01,31,17,08,33.90
2006,01,31,17,09,30.70
2006,01,31,17,10,35.90
2006,01,31,17,11,30.50
2006,01,31,17,12,23.10
2006,01,31,17,13,24.70
2006,01,31,17,14,22.40
2006,01,31,17,15,20.60
2006,01,31,17,16,25.50
2006,01,31,17,17,20.30
2006,01,31,17,18,22.70
2006,01,31,17,19,34.80
2006,01,31,17,20,24.70
2006,01,31,17,21,25.30
2006,01,31,17,22,23.30
2006,01,31,17,23,16.30
2006,01,31,17,24,23.10
2006,01,31,17,25,21.00
2006,01,31,17,26,29.60
2006,01,31,17,27,21.10
2006,01,31,17,28,25.20
2006,01,31,17,29,17.10
2006,01,31,17,30,19.20
2006,01,31,17,31,20.00
2006,01,31,17,32,30.40
2006,01,31,17,33,23.40
2006,01,31,17,34,26.60
2006,01,31,17,35,25.60
2006,01,31,17,36,21.80
2006,01,31,17,37,15.00
2006,01,31,17,38,24.50
2006,01,31,17,39,24.20
2006,01,31,17,40,25.70
2006,01,31,17,41,30.00
2006,01,31,17,42,28.00
2006,01,31,17,43,19.70
2006,01,31,17,44,23.80
2006,01,31,17,45,21.80
2006,01,31,17,46,26.20
2006,01,31,17,47,18.20
2006,01,31,17,48,19.50
2006,01,31,17,49,24.30
2006,01,31,17,50,19.50
2006,01,31,17,51,21.50